星链-1722 (STARLINK-1722 )

导读 | 豆包AI

STARLINK-1722是美国太空探索技术公司星链星座的卫星,于2020年9月3日发射入轨,属于星链低轨互联网星座组网卫星,承担全球宽带互联网服务组网任务。星链系统通过大量低轨卫星组网,可覆盖全球偏远区域,提供高速网络接入服务,该卫星是星链早期组网批次之一,服务星座通信能力搭建。

基本信息
目录编号:
46361
目录名称:
STARLINK-1722
国际标识:
2020-062AN
轨道中心:
EARTH
卫星名称:
星链-1722
卫星全名:
星链-1722 (STARLINK-1722 )
卫星状态:
已陨落 最后检测时间 2025-02-15
发射日期:
2020-09-03 UTC
国别 :
美国 (US)
星等 :
--
轨道信息
数据来源 国际轨道数据
星历时间: 2025-02-16T11:16:17+0800
轨道信息已过期438天
半长轴: 6532.996km
偏心率: 0.0007237
轨道倾角: 53.024°
近地点辐角 265.443°
升交点赤经 228.828°
平近点角 195.092°
近地点: 150.133km
远地点: 159.589km
周期: 87.585分钟
每日圈数: 16.441227
详细信息
固有亮度:
5
最大亮度:
2.5
卫星平台:
Starlink V1.0
覆盖范围:
全球
运营商:
太空探索技术公司
运营商所在国:
美国
制造商(研发单位):
太空探索技术公司
制造商所在国:
美国
使用方式:
暂无
卫星简介
星链(Starlink)计划是由太空探索技术公司(SpaceX)提出的一个巨型低轨卫星互联网星座项目,计划在2019年至2024年间在太空搭建由约1.2万颗卫星组成的“星链”网络,其中1584颗将部署在地球上空550千米处的近地轨道,并从2020年开始工作。该卫星仍在工作。